CHALLENGER

Last updated on Aug. 13, 2018, 12:15 a.m. UTC

1 42721U 98067MA  18224.59980250  .12090849  12543-4  42456-3 0  9997
2 42721  51.6121  42.1184 0010981 284.9336  75.0476 16.43490172 69841

Satellite is not in orbit.